| time (UTC) | temp F | wind direction | speed MPH | gust MPH | rain 1hr in | rain 24hr in | rain mn in | humidity % | barometer mb |
| 20260906171510 | 78 | 351 | 4.0 | 10.0 | 0.00 | 0.00 | 0.00 | 42 | 1014.9 |
| 20260906170006 | 76 | 338 | 4.0 | 12.0 | 0.00 | 0.00 | 0.00 | 39 | 1015.1 |
| 20260906164501 | 76 | 305 | 3.0 | 10.0 | 0.00 | 0.00 | 0.00 | 38 | 1015.1 |
| 20260906163057 | 76 | 345 | 3.0 | 6.0 | 0.00 | 0.00 | 0.00 | 33 | 1015.2 |
| 20260906161556 | 74 | 44 | 1.0 | 8.0 | 0.00 | 0.00 | 0.00 | 33 | 1015.3 |
| 20260906160049 | 75 | 46 | 4.0 | 8.0 | 0.00 | 0.00 | 0.00 | 33 | 1015.5 |
| 20260906154544 | 75 | 54 | 3.0 | 6.0 | 0.00 | 0.00 | 0.00 | 30 | 1015.6 |
| 20260906153039 | 73 | 355 | 3.0 | 10.0 | 0.00 | 0.00 | 0.00 | 22 | 1015.6 |
| 20260906151537 | 71 | 360 | 3.0 | 9.0 | 0.00 | 0.00 | 0.00 | 13 | 1015.6 |
| 20260906150032 | 71 | 334 | 2.0 | 5.0 | 0.00 | 0.00 | 0.00 | 3 | 1015.6 |
| 20260906144528 | 69 | 343 | 1.0 | 8.0 | 0.00 | 0.00 | 0.00 | 1 | 1015.5 |
| 20260906143024 | 67 | 36 | 2.0 | 10.0 | 0.00 | 0.00 | 0.00 | 1 | 1015.6 |
| 20260906141517 | 66 | 337 | 3.0 | 11.0 | 0.00 | 0.00 | 0.00 | 1 | 1015.5 |
| 20260906140018 | 65 | 36 | 4.0 | 10.0 | 0.00 | 0.00 | 0.00 | 1 | 1015.5 |
| 20260906134506 | 64 | 360 | 3.0 | 10.0 | 0.00 | 0.00 | 0.00 | 1 | 1015.5 |
| 20260906133004 | 63 | 39 | 1.0 | 5.0 | 0.00 | 0.00 | 0.00 | 1 | 1015.3 |
| 20260906131559 | 62 | 40 | 1.0 | 5.0 | 0.00 | 0.00 | 0.00 | 1 | 1015.3 |
| 20260906130103 | 62 | 360 | 2.0 | 4.0 | 0.00 | 0.00 | 0.00 | 1 | 1015.4 |
| 20260906124550 | 62 | 9 | 1.0 | 3.0 | 0.00 | 0.00 | 0.00 | 1 | 1015.2 |
| 20260906123047 | 61 | 9 | 1.0 | 4.0 | 0.00 | 0.00 | 0.00 | 1 | 1015.1 |
| 20260906121546 | 61 | 9 | 0.0 | 3.0 | 0.00 | 0.00 | 0.00 | 1 | 1015.1 |
| 20260906120037 | 60 | 9 | 1.0 | 2.0 | 0.00 | 0.00 | 0.00 | 1 | 1015.0 |
| 20260906114537 | 60 | 9 | 1.0 | 2.0 | 0.00 | 0.00 | 0.00 | 1 | 1014.8 |
| 20260906113028 | 60 | 9 | 0.0 | 2.0 | 0.00 | 0.00 | 0.00 | 1 | 1014.8 |
| 20260906111524 | 60 | 9 | 0.0 | 1.0 | 0.00 | 0.00 | 0.00 | 1 | 1014.7 |
| 20260906110019 | 59 | 9 | 0.0 | 0.0 | 0.00 | 0.00 | 0.00 | 1 | 1014.6 |
| 20260906104516 | 59 | 9 | 1.0 | 2.0 | 0.00 | 0.00 | 0.00 | 1 | 1014.5 |
| 20260906103011 | 59 | 9 | 0.0 | 0.0 | 0.00 | 0.00 | 0.00 | 1 | 1014.3 |
| 20260906101507 | 59 | 9 | 0.0 | 2.0 | 0.00 | 0.00 | 0.00 | 1 | 1014.1 |
| 20260906100003 | 58 | 9 | 0.0 | 2.0 | 0.00 | 0.00 | 0.00 | 1 | 1014.0 |
| 20260906094559 | 58 | 9 | 0.0 | 0.0 | 0.00 | 0.00 | 0.00 | 1 | 1013.9 |
| 20260906093101 | 58 | 9 | 0.0 | 2.0 | 0.00 | 0.00 | 0.00 | 1 | 1013.6 |
| 20260906091549 | 58 | 9 | 0.0 | 2.0 | 0.00 | 0.00 | 0.00 | 1 | 1013.3 |
| 20260906090046 | 58 | 9 | 0.0 | 2.0 | 0.00 | 0.00 | 0.00 | 1 | 1013.2 |
| 20260906084542 | 58 | 9 | 0.0 | 1.0 | 0.00 | 0.00 | 0.00 | 1 | 1013.1 |
| 20260906083037 | 58 | 9 | 0.0 | 1.0 | 0.00 | 0.00 | 0.00 | 1 | 1013.0 |
| 20260906081546 | 58 | 9 | 0.0 | 2.0 | 0.00 | 0.00 | 0.00 | 1 | 1012.9 |
| 20260906080029 | 59 | 9 | 0.0 | 0.0 | 0.00 | 0.00 | 0.00 | 1 | 1012.9 |
| 20260906074524 | 59 | 9 | 0.0 | 1.0 | 0.00 | 0.00 | 0.00 | 1 | 1012.8 |
| 20260906073035 | 59 | 9 | 0.0 | 1.0 | 0.00 | 0.00 | 0.00 | 1 | 1012.9 |
| 20260906071514 | 59 | 9 | 0.0 | 1.0 | 0.00 | 0.00 | 0.00 | 1 | 1013.0 |
| 20260906070014 | 59 | 9 | 0.0 | 0.0 | 0.00 | 0.00 | 0.00 | 1 | 1013.0 |
| 20260906064506 | 60 | 9 | 0.0 | 1.0 | 0.00 | 0.00 | 0.00 | 1 | 1012.9 |
| 20260906063004 | 60 | 9 | 0.0 | 0.0 | 0.00 | 0.00 | 0.00 | 1 | 1013.0 |
| 20260906061625 | 60 | 9 | 0.0 | 1.0 | 0.00 | 0.00 | 0.00 | 1 | 1013.1 |
| 20260906060053 | 60 | 9 | 0.0 | 2.0 | 0.00 | 0.00 | 0.00 | 1 | 1013.2 |
| 20260906054548 | 61 | 9 | 0.0 | 0.0 | 0.00 | 0.00 | 0.00 | 1 | 1013.1 |
| 20260906053050 | 61 | 9 | 0.0 | 2.0 | 0.00 | 0.00 | 0.00 | 1 | 1013.2 |
| 20260906051540 | 61 | 9 | 0.0 | 2.0 | 0.00 | 0.00 | 0.00 | 1 | 1013.2 |
| 20260906050042 | 61 | 9 | 0.0 | 2.0 | 0.00 | 0.00 | 0.00 | 1 | 1013.2 |
| 20260906044531 | 61 | 9 | 0.0 | 2.0 | 0.00 | 0.00 | 0.00 | 1 | 1013.2 |
| 20260906043038 | 61 | 9 | 1.0 | 2.0 | 0.00 | 0.00 | 0.00 | 1 | 1013.1 |
| 20260906041522 | 62 | 9 | 0.0 | 2.0 | 0.00 | 0.00 | 0.00 | 1 | 1013.1 |
| 20260906040017 | 63 | 9 | 0.0 | 2.0 | 0.00 | 0.00 | 0.00 | 1 | 1013.0 |
| 20260906034516 | 63 | 9 | 0.0 | 2.0 | 0.00 | 0.00 | 0.00 | 1 | 1012.9 |
| 20260906033008 | 63 | 9 | 0.0 | 2.0 | 0.00 | 0.00 | 0.00 | 1 | 1012.8 |
| 20260906031503 | 64 | 9 | 0.0 | 4.0 | 0.00 | 0.00 | 0.00 | 1 | 1012.7 |
| 20260906030109 | 64 | 9 | 0.0 | 2.0 | 0.00 | 0.00 | 0.00 | 1 | 1012.6 |
| 20260906024555 | 64 | 9 | 0.0 | 3.0 | 0.00 | 0.00 | 0.00 | 1 | 1012.7 |
| 20260906023105 | 65 | 9 | 0.0 | 2.0 | 0.00 | 0.00 | 0.00 | 1 | 1012.7 |
| 20260906021547 | 65 | 9 | 0.0 | 1.0 | 0.00 | 0.00 | 0.00 | 1 | 1012.6 |
| 20260906020043 | 66 | 9 | 0.0 | 2.0 | 0.00 | 0.00 | 0.00 | 1 | 1012.5 |
| 20260906014550 | 67 | 9 | 1.0 | 2.0 | 0.00 | 0.00 | 0.00 | 1 | 1012.3 |
| 20260906013034 | 67 | 9 | 0.0 | 2.0 | 0.00 | 0.00 | 0.00 | 1 | 1012.1 |
| 20260906011530 | 67 | 9 | 0.0 | 2.0 | 0.00 | 0.00 | 0.00 | 1 | 1012.2 |
| 20260906010025 | 68 | 9 | 0.0 | 3.0 | 0.00 | 0.00 | 0.00 | 1 | 1012.2 |
| 20260906004520 | 68 | 9 | 0.0 | 4.0 | 0.00 | 0.00 | 0.00 | 1 | 1012.1 |
| 20260906003016 | 69 | 9 | 0.0 | 2.0 | 0.00 | 0.00 | 0.00 | 1 | 1011.8 |
| 20260906001512 | 69 | 9 | 1.0 | 5.0 | 0.00 | 0.00 | 0.00 | 1 | 1011.7 |
| 20260906000007 | 70 | 9 | 0.0 | 3.0 | 0.00 | 0.00 | 0.00 | 5 | 1011.6 |
| 20260905234502 | 71 | 9 | 1.0 | 2.0 | 0.00 | 0.00 | 0.00 | 15 | 1011.5 |
| 20260905233059 | 71 | 34 | 2.0 | 4.0 | 0.00 | 0.00 | 0.00 | 24 | 1011.6 |
| 20260905231555 | 72 | 9 | 2.0 | 8.0 | 0.00 | 0.00 | 0.00 | 29 | 1011.5 |
| 20260905230050 | 73 | 347 | 1.0 | 5.0 | 0.00 | 0.00 | 0.00 | 33 | 1011.4 |
| 20260905224600 | 73 | 9 | 1.0 | 9.0 | 0.00 | 0.00 | 0.00 | 35 | 1011.4 |
| 20260905223041 | 74 | 350 | 2.0 | 9.0 | 0.00 | 0.00 | 0.00 | 37 | 1011.2 |
| 20260905221541 | 74 | 360 | 1.0 | 5.0 | 0.00 | 0.00 | 0.00 | 37 | 1011.1 |
| 20260905220032 | 74 | 80 | 2.0 | 7.0 | 0.00 | 0.00 | 0.00 | 36 | 1010.9 |
| 20260905214527 | 74 | 349 | 1.0 | 4.0 | 0.00 | 0.00 | 0.00 | 37 | 1010.8 |
| 20260905213023 | 74 | 349 | 3.0 | 6.0 | 0.00 | 0.00 | 0.00 | 39 | 1010.6 |
| 20260905211523 | 74 | 344 | 1.0 | 5.0 | 0.00 | 0.00 | 0.00 | 39 | 1010.6 |
| 20260905210014 | 75 | 325 | 3.0 | 10.0 | 0.00 | 0.00 | 0.00 | 40 | 1010.5 |
| 20260905204510 | 76 | 19 | 4.0 | 8.0 | 0.00 | 0.00 | 0.00 | 41 | 1010.4 |
| 20260905203005 | 77 | 355 | 2.0 | 12.0 | 0.00 | 0.00 | 0.00 | 40 | 1010.5 |
| 20260905201501 | 79 | 327 | 3.0 | 10.0 | 0.00 | 0.00 | 0.00 | 40 | 1010.6 |
| 20260905200059 | 79 | 355 | 3.0 | 10.0 | 0.00 | 0.00 | 0.00 | 40 | 1010.6 |
| 20260905194552 | 78 | 304 | 3.0 | 10.0 | 0.00 | 0.00 | 0.00 | 39 | 1010.5 |
| 20260905193047 | 77 | 11 | 2.0 | 8.0 | 0.00 | 0.00 | 0.00 | 39 | 1010.5 |
| 20260905191546 | 77 | 331 | 2.0 | 5.0 | 0.00 | 0.00 | 0.00 | 40 | 1010.6 |
| 20260905190049 | 77 | 340 | 2.0 | 6.0 | 0.00 | 0.00 | 0.00 | 39 | 1010.7 |
| 20260905184550 | 75 | 355 | 3.0 | 8.0 | 0.00 | 0.00 | 0.00 | 39 | 1010.7 |
| 20260905183031 | 75 | 346 | 1.0 | 6.0 | 0.00 | 0.00 | 0.00 | 39 | 1010.6 |
| 20260905181527 | 75 | 333 | 3.0 | 8.0 | 0.00 | 0.00 | 0.00 | 38 | 1010.7 |
| 20260905180023 | 76 | 334 | 3.0 | 8.0 | 0.00 | 0.00 | 0.00 | 39 | 1010.6 |
| 20260905174518 | 76 | 17 | 2.0 | 8.0 | 0.00 | 0.00 | 0.00 | 38 | 1010.5 |
| 20260905173017 | 76 | 302 | 1.0 | 9.0 | 0.00 | 0.00 | 0.00 | 38 | 1010.7 |